• Join FlightAware (Why Join?)
  • Login
  • US Flag 
07:06PM EST


 

Airport Tracker/Info


-or-


 

Live Flight TrackerFlight Track Log ✈ UAL4462 ✈ 18-Aug-2013 ✈ KLGA - KCLE

Flight Track Log - Related Links

Times and Time Zones

All times are in EDT time to prevent confusion due to time zone crossing. See the UAL4462 flight status page for this flight to view local times or setup timezone preferences in your user account.

Time Position Orientation Groundspeed Altitude Reporting Facility
EDT Latitude Longitude Course Direction KTS MPH feet Rate Location/Type
12:50PM 40.7333 -73.8000 270° West 221 254 3,700  Level New York TRACON
12:51PM 40.7833 -73.8000 360° North 242 278 6,600 2,678 Climbing New York TRACON
12:52PM 40.8333 -73.8833 308° West 270 311 9,100 2,132 Climbing New York TRACON
12:53PM 40.8500 -73.9833 282° West 293 337 10,900 1,600 Climbing New York TRACON
12:54PM 40.8437 -74.5437 275° West  Level FlightAware Approximate
12:54PM 40.8667 -74.1000 281° West 343 395 12,300  Level New York TRACON
12:55PM 40.8500 -74.6593 270° West  Level FlightAware Approximate
12:55PM 40.8667 -74.2333 270° West 367 422 14,100  Level New York TRACON
12:56PM 40.8833 -74.3667 279° West 362 417 16,000 1,450 Climbing New York TRACON
12:57PM 40.8833 -74.5000 270° West 368 423 17,000 420 Climbing New York TRACON
12:58PM 40.8967 -74.6883 275° West 398 458 17,000  Level New York Center
12:59PM 40.9028 -74.8122 274° West 398 458 17,000 50 Level New York Center
01:00PM 40.9100 -74.9692 274° West 393 452 17,100 650 Climbing New York Center
01:01PM 40.9172 -75.1125 274° West 393 452 18,300 1,500 Climbing New York Center
01:02PM 40.8978 -75.2458 259° West 370 426 20,100 1,800 Climbing New York Center
01:03PM 40.8742 -75.3706 256° West 364 419 21,900 1,500 Climbing New York Center
01:04PM 40.8464 -75.4892 253° West 354 407 23,100 1,050 Climbing New York Center
01:05PM 40.8194 -75.5944 251° West 345 397 24,000 450 Climbing New York Center
01:06PM 40.7911 -75.7239 254° West 350 403 24,000  Level New York Center
01:07PM 40.7953 -75.8694 272° West 380 437 24,000 100 Level New York Center
01:08PM 40.8139 -76.0189 279° West 394 453 24,200 650 Climbing New York Center
01:09PM 40.8342 -76.1686 280° West 409 471 25,300 1,250 Climbing New York Center
01:10PM 40.8544 -76.3156 280° West 414 476 26,700 1,450 Climbing New York Center
01:11PM 40.8706 -76.4569 279° West 409 471 28,200 1,500 Climbing New York Center
01:12PM 40.8892 -76.5903 281° West 389 448 29,700 1,450 Climbing New York Center
01:13PM 40.9056 -76.7236 279° West 383 441 31,100 1,150 Climbing New York Center
01:14PM 40.9217 -76.8567 279° West 372 428 32,000 450 Climbing New York Center
01:15PM 40.9394 -76.9931 280° West 372 428 32,000  Level New York Center
01:16PM 40.9569 -77.1375 279° West 384 442 32,000  Level New York Center
01:18PM 40.9956 -77.4411 280° West 423 487 32,000  Level Cleveland Center
01:19PM 41.0117 -77.5836 279° West 407 468 32,000  Level Cleveland Center
01:20PM 41.0281 -77.7289 279° West 407 468 32,000  Level Cleveland Center
01:21PM 41.0439 -77.8711 278° West 400 460 32,000  Level Cleveland Center
01:22PM 41.0597 -78.0139 278° West 400 460 32,000  Level Cleveland Center
01:23PM 41.0775 -78.1564 279° West 400 460 32,000  Level Cleveland Center
01:24PM 41.0972 -78.3044 280° West 410 472 32,000  Level Cleveland Center
01:25PM 41.1125 -78.4500 278° West 405 466 32,000  Level Cleveland Center
01:26PM 41.1278 -78.5956 278° West 405 466 32,000  Level Cleveland Center
01:27PM 41.1425 -78.7414 278° West 405 466 32,000  Level Cleveland Center
01:28PM 41.1594 -78.8869 279° West 405 466 32,000 -100 Level Cleveland Center
01:29PM 41.1742 -79.0494 277° West 405 466 31,800 -800 Descending Cleveland Center
01:30PM 41.1886 -79.1981 277° West 405 466 30,400 -1,400 Descending Cleveland Center
01:31PM 41.2047 -79.3331 279° West 410 472 29,000 -1,438 Descending Cleveland Center
01:32PM 41.2189 -79.4872 277° West 410 472 27,500 -1,550 Descending Cleveland Center
01:33PM 41.2350 -79.6581 277° West 421 484 25,900 -1,563 Descending Cleveland Center
01:34PM 41.2508 -79.8153 278° West 428 493 24,400 -950 Descending Cleveland Center
01:35PM 41.2642 -79.9561 277° West 428 493 24,000 -200 Descending Cleveland Center
01:36PM 41.2794 -80.1078 278° West 423 487 24,000  Level Cleveland Center
01:37PM 41.2944 -80.2569 278° West 423 487 24,000 -100 Level Cleveland Center
01:38PM 41.3094 -80.4283 277° West 423 487 23,800 -1,550 Descending Cleveland Center
01:39PM 41.3222 -80.5831 276° West 423 487 20,900 -2,900 Descending Cleveland Center
01:40PM 41.3450 -80.7214 282° West 404 465 18,000 -1,950 Descending Cleveland Center
01:41PM 41.3969 -80.8544 298° West 391 450 17,000 -729 Descending Cleveland Center
01:42PM 41.4342 -80.9514 297° West 400 460 16,700 -944 Descending Cleveland Center
01:42PM 41.4628 -81.0458 292° West 397 457 15,600 -1,703 Descending Cleveland Center
01:43PM 41.4689 -81.1208 276° West 396 456 14,600 -1,881 Descending Cleveland Center
01:44PM 41.4642 -81.2039 266° West 363 418 13,500 -1,733 Descending Cleveland Center
01:45PM 41.4614 -81.3286 268° West 363 418 12,000 -1,414 Descending Cleveland Center
01:46PM 41.4558 -81.5114 268° West 359 413 10,200 -926 Descending Cleveland Center
01:47PM 41.4425 -81.6219 261° West 316 364 9,700 -1,052 Descending Cleveland Center
01:48PM 41.4317 -81.6714 254° West 259 298 8,500 -1,851 Descending Cleveland Center
01:49PM 41.3850 -81.7483 231° Southwest 261 300 6,800 -1,922 Descending Cleveland Center
01:50PM 41.3319 -81.8303 229° Southwest 264 304 4,400 -1,417 Descending Cleveland Center
01:51PM 41.3042 -81.8961 241° Southwest 184 212 3,800 -984 Descending Cleveland Center
01:52PM 41.3478 -81.9136 343° North 155 178 2,300 -1,119 Descending Cleveland Center
01:53PM 41.3875 -81.8978 17° North 156 180 1,300 -909 Descending Cleveland Center